Location: B?jaj?g
(11.7167°N, 92.6667°E)
Time: 12:36:43
(UTC+00:00)

SL-24 R/B - Pass Details

Date: 18 September 2020
Orbit: 625 x 1075 km, 98.0° (Epoch: 23 October)

Event Time Altitude Azimuth Distance (km) Brightness Sun altitude
Rises 12:26:43 0° 168° (SSE) 2,980 7.4 -10.3°
Reaches altitude 10° 12:28:58 10° 168° (SSE) 2,035 6.6 -10.8°
Maximum altitude 12:33:20 89° 248° (WSW) 630 4.1 -11.9°
Drops below altitude 10° 12:37:37 10° 348° (NNW) 1,996 6.9 -13.0°
Sets 12:39:49 0° 349° (NNW) 2,917 7.7 -13.5°
